TimePST,TemperatureF,Dew PointF,Humidity,Sea Level PressureIn,VisibilityMPH,Wind Direction,Wind SpeedMPH,Gust SpeedMPH,PrecipitationIn,Events,Conditions,WindDirDegrees,DateUTC
12:27 AM,55.4,55.4,100,29.97,0.5,Calm,Calm,-,N/A,Fog,Fog,0,2013-01-26 08:27:00
12:43 AM,55.4,55.4,100,29.97,0.2,Calm,Calm,-,N/A,Fog,Fog,0,2013-01-26 08:43:00
12:51 AM,55.9,55.9,100,29.95,0.2,Calm,Calm,-,N/A,Fog,Fog,0,2013-01-26 08:51:00
1:51 AM,55.9,55.0,97,29.94,0.2,Calm,Calm,-,N/A,Fog,Fog,0,2013-01-26 09:51:00
2:35 AM,55.4,55.4,100,29.95,0.5,Calm,Calm,-,N/A,Fog,Fog,0,2013-01-26 10:35:00
2:51 AM,55.9,55.0,97,29.93,1.2,West,4.6,-,N/A,,Overcast,280,2013-01-26 10:51:00
2:54 AM,55.4,53.6,94,29.94,1.0,WNW,3.5,-,N/A,,Overcast,290,2013-01-26 10:54:00
2:58 AM,55.4,55.4,100,29.94,0.5,Calm,Calm,-,N/A,Fog,Fog,0,2013-01-26 10:58:00
3:07 AM,55.4,55.4,100,29.94,0.2,Calm,Calm,-,N/A,Fog,Fog,0,2013-01-26 11:07:00
3:51 AM,55.9,54.0,93,29.91,0.2,Calm,Calm,-,N/A,Fog,Fog,0,2013-01-26 11:51:00
4:51 AM,55.9,55.0,97,29.90,0.2,Calm,Calm,-,0.00,Fog,Fog,0,2013-01-26 12:51:00
5:02 AM,55.4,55.4,100,29.92,1.2,Calm,Calm,-,N/A,,Overcast,0,2013-01-26 13:02:00
5:04 AM,55.4,55.4,100,29.92,3.0,Calm,Calm,-,N/A,,Overcast,0,2013-01-26 13:04:00
5:15 AM,55.4,55.4,100,29.92,1.5,Calm,Calm,-,N/A,,Overcast,0,2013-01-26 13:15:00
5:17 AM,55.4,55.4,100,29.92,0.8,Calm,Calm,-,N/A,,Overcast,0,2013-01-26 13:17:00
5:33 AM,55.4,55.4,100,29.92,0.2,Calm,Calm,-,N/A,Fog,Fog,0,2013-01-26 13:33:00
5:49 AM,55.4,53.6,94,29.92,0.2,WSW,5.8,-,N/A,Fog,Fog,250,2013-01-26 13:49:00
5:51 AM,55.0,54.0,96,29.91,0.2,West,4.6,-,N/A,Fog,Fog,260,2013-01-26 13:51:00
6:07 AM,55.4,53.6,94,29.92,0.2,West,3.5,-,N/A,Fog,Fog,270,2013-01-26 14:07:00
6:51 AM,55.9,55.0,97,29.91,0.2,Calm,Calm,-,N/A,Fog,Fog,0,2013-01-26 14:51:00
7:51 AM,55.9,55.0,97,29.92,0.2,Calm,Calm,-,N/A,Fog,Fog,0,2013-01-26 15:51:00
8:19 AM,55.4,55.4,100,29.94,0.2,Calm,Calm,-,N/A,Fog,Fog,0,2013-01-26 16:19:00
8:51 AM,55.0,54.0,96,29.93,0.2,NW,5.8,-,N/A,Fog,Fog,320,2013-01-26 16:51:00
9:51 AM,55.0,54.0,96,29.95,0.2,NNW,5.8,-,N/A,Fog,Fog,330,2013-01-26 17:51:00
10:47 AM,57.2,57.2,100,29.96,2.0,East,3.5,-,N/A,,Mostly Cloudy,90,2013-01-26 18:47:00
10:49 AM,57.2,57.2,100,29.96,7.0,Variable,3.5,-,N/A,,Mostly Cloudy,0,2013-01-26 18:49:00
10:51 AM,57.9,57.0,97,29.94,10.0,Calm,Calm,-,N/A,,Mostly Cloudy,0,2013-01-26 18:51:00
11:08 AM,57.2,55.4,94,29.96,10.0,Calm,Calm,-,N/A,,Partly Cloudy,0,2013-01-26 19:08:00
11:31 AM,57.2,53.6,88,29.96,10.0,WSW,5.8,-,N/A,,Mostly Cloudy,250,2013-01-26 19:31:00
11:34 AM,57.2,53.6,88,29.96,0.5,WSW,9.2,-,N/A,Fog,Fog,250,2013-01-26 19:34:00
11:48 AM,55.4,53.6,94,29.95,0.2,West,12.7,-,N/A,Fog,Fog,260,2013-01-26 19:48:00
11:51 AM,55.0,54.0,96,29.94,0.2,West,11.5,-,N/A,Fog,Fog,260,2013-01-26 19:51:00
12:51 PM,53.1,52.0,96,29.92,0.2,West,10.4,-,N/A,Fog,Fog,260,2013-01-26 20:51:00
1:51 PM,53.1,53.1,100,29.93,0.2,WSW,5.8,-,0.01,Fog,Fog,250,2013-01-26 21:51:00
2:38 PM,53.6,53.6,100,29.95,0.8,West,9.2,-,N/A,,Overcast,260,2013-01-26 22:38:00
2:40 PM,53.6,53.6,100,29.95,1.2,West,10.4,-,N/A,,Overcast,260,2013-01-26 22:40:00
2:47 PM,55.4,55.4,100,29.95,3.0,West,10.4,-,N/A,,Overcast,260,2013-01-26 22:47:00
2:51 PM,55.0,55.0,100,29.93,10.0,West,8.1,-,N/A,,Overcast,260,2013-01-26 22:51:00
3:23 PM,55.4,55.4,100,29.94,10.0,WSW,10.4,-,N/A,,Scattered Clouds,240,2013-01-26 23:23:00
3:51 PM,55.0,55.0,100,29.92,10.0,WSW,9.2,-,N/A,,Partly Cloudy,250,2013-01-26 23:51:00
3:58 PM,53.6,53.6,100,29.94,0.8,WSW,8.1,-,N/A,,Mist,240,2013-01-26 23:58:00
4:09 PM,53.6,53.6,100,29.94,1.8,SW,8.1,-,N/A,,Scattered Clouds,230,2013-01-27 00:09:00
4:16 PM,53.6,53.6,100,29.94,10.0,WSW,8.1,-,N/A,,Partly Cloudy,240,2013-01-27 00:16:00
4:51 PM,55.9,51.1,84,29.93,10.0,WSW,8.1,-,N/A,,Clear,240,2013-01-27 00:51:00
5:51 PM,52.0,50.0,93,29.94,5.0,SW,6.9,-,N/A,,Clear,230,2013-01-27 01:51:00
5:59 PM,51.8,50.0,94,29.96,2.0,Calm,Calm,-,N/A,,Partly Cloudy,0,2013-01-27 01:59:00
6:01 PM,51.8,50.0,94,29.96,1.0,Calm,Calm,-,N/A,,Mist,0,2013-01-27 02:01:00
6:08 PM,51.8,50.0,94,29.96,0.2,Calm,Calm,-,N/A,Fog,Fog,0,2013-01-27 02:08:00
6:27 PM,50.0,50.0,100,29.96,0.2,SSW,3.5,-,N/A,Fog,Fog,210,2013-01-27 02:27:00
6:51 PM,50.0,50.0,100,29.96,0.2,SW,8.1,-,N/A,Fog,Fog,230,2013-01-27 02:51:00
7:08 PM,51.8,51.8,100,29.97,0.2,SSW,6.9,-,N/A,Fog,Fog,210,2013-01-27 03:08:00
7:51 PM,50.0,50.0,100,29.97,0.2,SW,4.6,-,N/A,Fog,Fog,220,2013-01-27 03:51:00
7:58 PM,50.0,50.0,100,29.98,0.2,Calm,Calm,-,N/A,Fog,Fog,0,2013-01-27 03:58:00
8:43 PM,50.0,50.0,100,29.98,0.2,South,4.6,-,N/A,Fog,Fog,190,2013-01-27 04:43:00
8:51 PM,51.1,50.0,96,29.97,0.2,SSE,4.6,-,N/A,Fog,Fog,160,2013-01-27 04:51:00
9:51 PM,50.0,50.0,100,29.99,0.2,SSW,3.5,-,N/A,Fog,Fog,210,2013-01-27 05:51:00
10:51 PM,50.0,48.9,96,30.00,0.2,WSW,5.8,-,N/A,Fog,Fog,240,2013-01-27 06:51:00
11:51 PM,50.0,48.9,96,30.00,0.2,SSW,3.5,-,N/A,Fog,Fog,210,2013-01-27 07:51:00